Location: Madrid
(40.4000°N, 3.6830°W)
Time: 13:12:55
(UTC+01:00)

ISS - Pass Details

Date: 06 December 2019
Orbit: 411 x 421 km, 51.6° (Epoch: 11 December)

Event Time Altitude Azimuth Distance (km) Brightness Sun altitude
Rises 19:59:49 0° 309° (NW) 2,361 0.6 -24.4°
Reaches altitude 10° 20:01:57 10° 314° (NW) 1,497 -0.5 -24.8°
Enters shadow 20:02:59 18° 319° (NW) 1,093 -1.3 -25.0°
